Tracking 21155 objects as of 15-Aug-2020
HD Live streaming from Space Station
objects crossing your sky now

COSMOS 2251 DEB

Track COSMOS 2251 DEB now!
10-day predictions


NORAD ID: 34401
Int'l Code: 1993-036QS
Perigee: 668.3 km
Apogee: 761.1 km
Inclination: 74.0 °
Period: 98.9 minutes
Semi major axis: 7085 km
RCS: 0.033 m2 (small)
Launch date: June 16, 1993
Source: Commonwealth of Independent States (former USSR) (CIS)
Launch site: PLESETSK MISSILE AND SPACE COMPLEX (PKMTR)

Note: This is SATELLITE DEBRIS
aabbcc
Your satellite tracking list
Your tracking list is empty




NASA's NSSDC Master Catalog

Two Line Element Set (TLE):
1 34401U 93036QS  20228.58092436 +.00000639 +00000-0 +14933-3 0  9995
2 34401 074.0468 081.9172 0065481 280.1446 109.8956 14.55569583607877
Source of the keplerian elements: AFSPC